This is the latest recevied weather packets stored in our database for station/object SV4JYD-14. If no packets are shown the sender has not sent any weather packets the latest 10 day(s).
| Time | Temp. | Humidity | Pressure | Rain* | Wind** | Luminosity | Snow |
|---|---|---|---|---|---|---|---|
| 1777554385 | 22.22° C | 43% | 1013 hPa | 0 mm | - | - | - |
| 1777553484 | 22.22° C | 43% | 1013 hPa | 0 mm | - | - | - |
| 1777552584 | 22.22° C | 43% | 1013 hPa | 0 mm | - | - | - |
| 1777551685 | 22.22° C | 43% | 1014 hPa | 0 mm | - | - | - |
| 1777550783 | 22.22° C | 43% | 1014 hPa | 0 mm | - | - | - |
| 1777549883 | 21.67° C | 46% | 1014 hPa | 0 mm | - | - | - |
| 1777548983 | 21.67° C | 46% | 1014 hPa | 0 mm | - | - | - |
| 1777548083 | 21.67° C | 46% | 1015 hPa | 0 mm | - | - | - |
| 1777547182 | 21.67° C | 47% | 1015 hPa | 0 mm | - | - | - |
| 1777546282 | 20° C | 45% | 1015 hPa | 0 mm | - | - | - |
| 1777545383 | 20.56° C | 43% | 1015 hPa | 0 mm | - | - | - |
| 1777544481 | 21.11° C | 43% | 1016 hPa | 0 mm | - | - | - |
| 1777543581 | 20.56° C | 46% | 1016 hPa | 0 mm | - | - | - |
| 1777542681 | 20° C | 48% | 1015 hPa | 0 mm | - | - | - |
| 1777541781 | 20° C | 45% | 1015 hPa | 0 mm | - | - | - |
| 1777540880 | 18.89° C | 44% | 1016 hPa | 0 mm | - | - | - |
| 1777539980 | 18.89° C | 46% | 1016 hPa | 0 mm | - | - | - |
| 1777539080 | 18.89° C | 52% | 1016 hPa | 0 mm | - | - | - |
| 1777538180 | 18.89° C | 50% | 1016 hPa | 0 mm | - | - | - |
| 1777537279 | 18.89° C | 52% | 1016 hPa | 0 mm | - | - | - |
| 1777536379 | 18.89° C | 54% | 1016 hPa | 0 mm | - | - | - |
| 1777535479 | 18.89° C | 54% | 1016 hPa | 0 mm | - | - | - |
| 1777534578 | 18.89° C | 53% | 1016 hPa | 0 mm | - | - | - |
| 1777533678 | 19.44° C | 51% | 1017 hPa | 0 mm | - | - | - |
| 1777532778 | 19.44° C | 54% | 1016 hPa | 0 mm | - | - | - |
* Rain latest hour (hover to see other rain measurements)
** Current wind speed in m/s (hover to see current wind gust speed)